contact:dominique.lefevre@mio.osupytheas.fr, maurice.libes@osupytheas.fr, didier.mallarino@osupytheas.fr
Project:EMSO http://www.emso-fr.org/EMSO-France
Depth: 2436.0 m
Title:EMSO Ligure Ouest : Data MII capteur MICROCAT
DateTime_Computer,Latitude,Longitude,Temperature,Conductivity,Pressure,DateTime_Instrument
DateTime_Computer,Latitude,Longitude,degC,S m-1,dbar,DateTime_Instrument
2022-09-26T00:00:29Z,42.805,6.029,13.3070,4.60079,2470.46,2022-9-26T02:02:23Z
2022-09-26T00:03:32Z,42.805,6.029,13.3056,4.60086,2470.437,2022-9-26T02:05:26Z
2022-09-26T00:06:35Z,42.805,6.029,13.3063,4.60105,2470.45,2022-9-26T02:08:29Z
2022-09-26T00:09:39Z,42.805,6.029,13.3064,4.60082,2470.45,2022-9-26T02:11:32Z
2022-09-26T00:12:42Z,42.805,6.029,13.3084,4.60103,2470.45,2022-9-26T02:14:35Z
2022-09-26T00:15:45Z,42.805,6.029,13.3086,4.60090,2470.45,2022-9-26T02:17:38Z
2022-09-26T00:18:48Z,42.805,6.029,13.3053,4.60097,2470.45,2022-9-26T02:20:41Z
2022-09-26T00:21:51Z,42.805,6.029,13.3047,4.60089,2470.427,2022-9-26T02:23:44Z
2022-09-26T00:24:54Z,42.805,6.029,13.3067,4.60096,2470.45,2022-9-26T02:26:48Z
2022-09-26T00:27:57Z,42.805,6.029,13.3088,4.60086,2470.427,2022-9-26T02:29:51Z
2022-09-26T00:31:00Z,42.805,6.029,13.3081,4.60087,2470.437,2022-9-26T02:32:54Z
2022-09-26T00:34:04Z,42.805,6.029,13.3085,4.60082,2470.437,2022-9-26T02:35:57Z
2022-09-26T00:37:07Z,42.805,6.029,13.3091,4.60131,2470.427,2022-9-26T02:39:00Z
2022-09-26T00:40:10Z,42.805,6.029,13.3089,4.60088,2470.427,2022-9-26T02:42:03Z
2022-09-26T00:43:13Z,42.805,6.029,13.3085,4.60101,2470.39,2022-9-26T02:45:06Z
2022-09-26T00:46:16Z,42.805,6.029,13.3085,4.60102,2470.45,2022-9-26T02:48:09Z
2022-09-26T00:49:19Z,42.805,6.029,13.3078,4.60110,2470.427,2022-9-26T02:51:13Z
2022-09-26T00:52:22Z,42.805,6.029,13.3082,4.60098,2470.427,2022-9-26T02:54:16Z
2022-09-26T00:55:25Z,42.805,6.029,13.3069,4.60125,2470.427,2022-9-26T02:57:19Z
2022-09-26T00:58:29Z,42.805,6.029,13.3087,4.60102,2470.427,2022-9-26T03:00:22Z
2022-09-26T01:01:32Z,42.805,6.029,13.3088,4.60117,2470.413,2022-9-26T03:03:25Z
2022-09-26T01:04:35Z,42.805,6.029,13.3091,4.60086,2470.413,2022-9-26T03:06:28Z
2022-09-26T01:07:38Z,42.805,6.029,13.3085,4.60088,2470.427,2022-9-26T03:09:31Z
2022-09-26T01:10:41Z,42.805,6.029,13.3082,4.60081,2470.404,2022-9-26T03:12:34Z
2022-09-26T01:13:44Z,42.805,6.029,13.3090,4.60077,2470.413,2022-9-26T03:15:38Z
2022-09-26T01:16:47Z,42.805,6.029,13.3077,4.60100,2470.413,2022-9-26T03:18:41Z
2022-09-26T01:19:50Z,42.805,6.029,13.3089,4.60080,2470.427,2022-9-26T03:21:44Z
2022-09-26T01:22:54Z,42.805,6.029,13.3083,4.60092,2470.413,2022-9-26T03:24:47Z
2022-09-26T01:25:57Z,42.805,6.029,13.3073,4.60089,2470.39,2022-9-26T03:27:50Z
2022-09-26T01:29:00Z,42.805,6.029,13.3075,4.60101,2470.404,2022-9-26T03:30:53Z
2022-09-26T01:32:03Z,42.805,6.029,13.3091,4.60103,2470.404,2022-9-26T03:33:56Z
2022-09-26T01:35:06Z,42.805,6.029,13.3062,4.60078,2470.404,2022-9-26T03:36:59Z
2022-09-26T01:38:09Z,42.805,6.029,13.3070,4.60110,2470.404,2022-9-26T03:40:03Z
2022-09-26T01:41:12Z,42.805,6.029,13.3038,4.60135,2470.427,2022-9-26T03:43:06Z
2022-09-26T01:44:15Z,42.805,6.029,13.3057,4.60113,2470.413,2022-9-26T03:46:09Z
2022-09-26T01:47:18Z,42.805,6.029,13.3062,4.60075,2470.413,2022-9-26T03:49:12Z
2022-09-26T01:50:22Z,42.805,6.029,13.3082,4.60114,2470.399,2022-9-26T03:52:15Z
2022-09-26T01:53:25Z,42.805,6.029,13.3056,4.60074,2470.404,2022-9-26T03:55:18Z
2022-09-26T01:56:28Z,42.805,6.029,13.3062,4.60075,2470.39,2022-9-26T03:58:21Z
2022-09-26T01:59:31Z,42.805,6.029,13.3059,4.60120,2470.427,2022-9-26T04:01:24Z
2022-09-26T02:02:34Z,42.805,6.029,13.3041,4.60095,2470.413,2022-9-26T04:04:27Z
2022-09-26T02:05:37Z,42.805,6.029,13.3067,4.60074,2470.427,2022-9-26T04:07:31Z
2022-09-26T02:08:40Z,42.805,6.029,13.3069,4.60071,2470.38,2022-9-26T04:10:34Z
2022-09-26T02:11:43Z,42.805,6.029,13.3054,4.60071,2470.413,2022-9-26T04:13:37Z
2022-09-26T02:14:47Z,42.805,6.029,13.3097,4.60096,2470.404,2022-9-26T04:16:40Z
2022-09-26T02:17:50Z,42.805,6.029,13.3053,4.60074,2470.427,2022-9-26T04:19:43Z
2022-09-26T02:20:53Z,42.805,6.029,13.3043,4.60097,2470.404,2022-9-26T04:22:46Z
2022-09-26T02:23:56Z,42.805,6.029,13.3056,4.60072,2470.413,2022-9-26T04:25:49Z
2022-09-26T02:26:59Z,42.805,6.029,13.3061,4.60086,2470.413,2022-9-26T04:28:52Z
2022-09-26T02:30:02Z,42.805,6.029,13.3063,4.60091,2470.404,2022-9-26T04:31:56Z
2022-09-26T02:33:05Z,42.805,6.029,13.3054,4.60091,2470.427,2022-9-26T04:34:59Z
2022-09-26T02:36:08Z,42.805,6.029,13.3076,4.60086,2470.427,2022-9-26T04:38:02Z
2022-09-26T02:39:12Z,42.805,6.029,13.3061,4.60097,2470.437,2022-9-26T04:41:05Z
2022-09-26T02:42:15Z,42.805,6.029,13.3100,4.60107,2470.413,2022-9-26T04:44:08Z
2022-09-26T02:45:18Z,42.805,6.029,13.3078,4.60102,2470.413,2022-9-26T04:47:11Z
2022-09-26T02:48:21Z,42.805,6.029,13.3076,4.60087,2470.413,2022-9-26T04:50:14Z
2022-09-26T02:51:24Z,42.805,6.029,13.3081,4.60077,2470.437,2022-9-26T04:53:17Z
2022-09-26T02:54:27Z,42.805,6.029,13.3067,4.60084,2470.427,2022-9-26T04:56:21Z
2022-09-26T02:57:30Z,42.805,6.029,13.3080,4.60099,2470.437,2022-9-26T04:59:24Z
2022-09-26T03:00:33Z,42.805,6.029,13.3085,4.60090,2470.413,2022-9-26T05:02:27Z
2022-09-26T03:03:37Z,42.805,6.029,13.3077,4.60085,2470.437,2022-9-26T05:05:30Z
2022-09-26T03:06:40Z,42.805,6.029,13.3094,4.60112,2470.413,2022-9-26T05:08:33Z
2022-09-26T03:09:43Z,42.805,6.029,13.3094,4.60111,2470.39,2022-9-26T05:11:36Z
2022-09-26T03:12:46Z,42.805,6.029,13.3088,4.60078,2470.427,2022-9-26T05:14:39Z
2022-09-26T03:15:49Z,42.805,6.029,13.3073,4.60088,2470.427,2022-9-26T05:17:42Z
2022-09-26T03:18:52Z,42.805,6.029,13.3080,4.60117,2470.45,2022-9-26T05:20:46Z
2022-09-26T03:21:55Z,42.805,6.029,13.3069,4.60096,2470.427,2022-9-26T05:23:49Z
2022-09-26T03:24:58Z,42.805,6.029,13.3070,4.60159,2470.437,2022-9-26T05:26:52Z
2022-09-26T03:28:01Z,42.805,6.029,13.3080,4.60094,2470.46,2022-9-26T05:29:55Z
2022-09-26T03:31:05Z,42.805,6.029,13.3083,4.60085,2470.437,2022-9-26T05:32:58Z
2022-09-26T03:34:08Z,42.805,6.029,13.3065,4.60093,2470.45,2022-9-26T05:36:01Z
2022-09-26T03:37:11Z,42.805,6.029,13.3052,4.60088,2470.483,2022-9-26T05:39:04Z
2022-09-26T03:40:14Z,42.805,6.029,13.3073,4.60106,2470.437,2022-9-26T05:42:07Z
2022-09-26T03:43:17Z,42.805,6.029,13.3061,4.60110,2470.437,2022-9-26T05:45:10Z
2022-09-26T03:46:20Z,42.805,6.029,13.3069,4.60102,2470.474,2022-9-26T05:48:14Z
2022-09-26T03:49:23Z,42.805,6.029,13.3076,4.60092,2470.45,2022-9-26T05:51:17Z
2022-09-26T03:52:26Z,42.805,6.029,13.3077,4.60089,2470.474,2022-9-26T05:54:20Z
2022-09-26T03:55:30Z,42.805,6.029,13.3078,4.60089,2470.483,2022-9-26T05:57:23Z
2022-09-26T03:58:33Z,42.805,6.029,13.3083,4.60097,2470.46,2022-9-26T06:00:26Z
2022-09-26T04:01:36Z,42.805,6.029,13.3062,4.60088,2470.474,2022-9-26T06:03:29Z
2022-09-26T04:04:39Z,42.805,6.029,13.3070,4.60087,2470.474,2022-9-26T06:06:32Z
2022-09-26T04:07:42Z,42.805,6.029,13.3084,4.60079,2470.52,2022-9-26T06:09:35Z
2022-09-26T04:10:45Z,42.805,6.029,13.3058,4.60089,2470.497,2022-9-26T06:12:39Z
2022-09-26T04:13:48Z,42.805,6.029,13.3074,4.60094,2470.46,2022-9-26T06:15:42Z
2022-09-26T04:16:51Z,42.805,6.029,13.3078,4.60087,2470.483,2022-9-26T06:18:45Z
2022-09-26T04:19:55Z,42.805,6.029,13.3089,4.60079,2470.46,2022-9-26T06:21:48Z
2022-09-26T04:22:58Z,42.805,6.029,13.3056,4.60103,2470.52,2022-9-26T06:24:51Z
2022-09-26T04:26:01Z,42.805,6.029,13.3085,4.60093,2470.52,2022-9-26T06:27:54Z
2022-09-26T04:29:04Z,42.805,6.029,13.3069,4.60096,2470.507,2022-9-26T06:30:57Z
2022-09-26T04:32:07Z,42.805,6.029,13.3074,4.60108,2470.52,2022-9-26T06:34:00Z
2022-09-26T04:35:10Z,42.805,6.029,13.3054,4.60102,2470.52,2022-9-26T06:37:03Z
2022-09-26T04:38:13Z,42.805,6.029,13.3062,4.60084,2470.544,2022-9-26T06:40:07Z
2022-09-26T04:41:16Z,42.805,6.029,13.3096,4.60092,2470.507,2022-9-26T06:43:10Z
2022-09-26T04:44:19Z,42.805,6.029,13.3065,4.60089,2470.553,2022-9-26T06:46:13Z
2022-09-26T04:47:23Z,42.805,6.029,13.3085,4.60107,2470.553,2022-9-26T06:49:16Z
2022-09-26T04:50:26Z,42.805,6.029,13.3082,4.60110,2470.544,2022-9-26T06:52:19Z
2022-09-26T04:53:29Z,42.805,6.029,13.3060,4.60093,2470.544,2022-9-26T06:55:22Z
2022-09-26T04:56:32Z,42.805,6.029,13.3065,4.60109,2470.53,2022-9-26T06:58:25Z
2022-09-26T04:59:35Z,42.805,6.029,13.3077,4.60084,2470.53,2022-9-26T07:01:28Z
2022-09-26T05:02:38Z,42.805,6.029,13.3051,4.60127,2470.567,2022-9-26T07:04:32Z
2022-09-26T05:05:41Z,42.805,6.029,13.3069,4.60117,2470.567,2022-9-26T07:07:35Z
2022-09-26T05:08:44Z,42.805,6.029,13.3067,4.60095,2470.553,2022-9-26T07:10:38Z
2022-09-26T05:11:48Z,42.805,6.029,13.3069,4.60088,2470.553,2022-9-26T07:13:41Z
2022-09-26T05:14:51Z,42.805,6.029,13.3079,4.60080,2470.544,2022-9-26T07:16:44Z
2022-09-26T05:17:54Z,42.805,6.029,13.3079,4.60079,2470.567,2022-9-26T07:19:47Z
2022-09-26T05:20:57Z,42.805,6.029,13.3089,4.60099,2470.567,2022-9-26T07:22:50Z
2022-09-26T05:24:00Z,42.805,6.029,13.3047,4.60102,2470.553,2022-9-26T07:25:53Z
2022-09-26T05:27:03Z,42.805,6.029,13.3070,4.60091,2470.577,2022-9-26T07:28:57Z
2022-09-26T05:30:06Z,42.805,6.029,13.3038,4.60099,2470.614,2022-9-26T07:32:00Z
2022-09-26T05:33:09Z,42.805,6.029,13.3063,4.60122,2470.577,2022-9-26T07:35:03Z
2022-09-26T05:36:13Z,42.805,6.029,13.3071,4.60098,2470.614,2022-9-26T07:38:06Z
2022-09-26T05:39:16Z,42.805,6.029,13.3071,4.60079,2470.553,2022-9-26T07:41:09Z
2022-09-26T05:42:19Z,42.805,6.029,13.3058,4.60090,2470.614,2022-9-26T07:44:12Z
2022-09-26T05:45:22Z,42.805,6.029,13.3046,4.60081,2470.637,2022-9-26T07:47:15Z
2022-09-26T05:48:25Z,42.805,6.029,13.3073,4.60104,2470.614,2022-9-26T07:50:18Z
2022-09-26T05:51:28Z,42.805,6.029,13.3056,4.60096,2470.6,2022-9-26T07:53:22Z
2022-09-26T05:54:31Z,42.805,6.029,13.3071,4.60095,2470.614,2022-9-26T07:56:25Z
2022-09-26T05:57:34Z,42.805,6.029,13.3077,4.60099,2470.6,2022-9-26T07:59:28Z
2022-09-26T06:00:38Z,42.805,6.029,13.3073,4.60129,2470.591,2022-9-26T08:02:31Z
2022-09-26T06:03:41Z,42.805,6.029,13.3069,4.60117,2470.6,2022-9-26T08:05:34Z
2022-09-26T06:06:44Z,42.805,6.029,13.3082,4.60083,2470.637,2022-9-26T08:08:37Z
2022-09-26T06:09:47Z,42.805,6.029,13.3075,4.60102,2470.614,2022-9-26T08:11:40Z
2022-09-26T06:12:50Z,42.805,6.029,13.3050,4.60087,2470.637,2022-9-26T08:14:43Z
2022-09-26T06:15:53Z,42.805,6.029,13.3051,4.60097,2470.624,2022-9-26T08:17:46Z
2022-09-26T06:18:56Z,42.805,6.029,13.3067,4.60076,2470.614,2022-9-26T08:20:50Z
2022-09-26T06:21:59Z,42.805,6.029,13.3071,4.60087,2470.637,2022-9-26T08:23:53Z
2022-09-26T06:25:02Z,42.805,6.029,13.3054,4.60121,2470.614,2022-9-26T08:26:56Z
2022-09-26T06:28:06Z,42.805,6.029,13.3052,4.60084,2470.614,2022-9-26T08:29:59Z
2022-09-26T06:31:09Z,42.805,6.029,13.3095,4.60126,2470.637,2022-9-26T08:33:02Z
2022-09-26T06:34:12Z,42.805,6.029,13.3060,4.60080,2470.637,2022-9-26T08:36:05Z
2022-09-26T06:37:15Z,42.805,6.029,13.3048,4.60087,2470.637,2022-9-26T08:39:08Z
2022-09-26T06:40:18Z,42.805,6.029,13.3034,4.60090,2470.577,2022-9-26T08:42:11Z
2022-09-26T06:43:21Z,42.805,6.029,13.3040,4.60097,2470.637,2022-9-26T08:45:15Z
2022-09-26T06:46:24Z,42.805,6.029,13.3048,4.60084,2470.661,2022-9-26T08:48:18Z
2022-09-26T06:49:27Z,42.805,6.029,13.3049,4.60081,2470.661,2022-9-26T08:51:21Z
2022-09-26T06:52:31Z,42.805,6.029,13.3072,4.60081,2470.624,2022-9-26T08:54:24Z
2022-09-26T06:55:34Z,42.805,6.029,13.3056,4.60074,2470.614,2022-9-26T08:57:27Z
2022-09-26T06:58:37Z,42.805,6.029,13.3074,4.60084,2470.614,2022-9-26T09:00:30Z
2022-09-26T07:01:40Z,42.805,6.029,13.3070,4.60102,2470.624,2022-9-26T09:03:33Z
2022-09-26T07:04:43Z,42.805,6.029,13.3067,4.60104,2470.614,2022-9-26T09:06:36Z
2022-09-26T07:07:46Z,42.805,6.029,13.3061,4.60122,2470.624,2022-9-26T09:09:40Z
2022-09-26T07:10:49Z,42.805,6.029,13.3065,4.60097,2470.6,2022-9-26T09:12:43Z
2022-09-26T07:13:52Z,42.805,6.029,13.3056,4.60122,2470.646,2022-9-26T09:15:46Z
2022-09-26T07:16:56Z,42.805,6.029,13.3047,4.60105,2470.637,2022-9-26T09:18:49Z
2022-09-26T07:19:59Z,42.805,6.029,13.3059,4.60106,2470.684,2022-9-26T09:21:52Z
2022-09-26T07:23:02Z,42.805,6.029,13.3063,4.60095,2470.637,2022-9-26T09:24:55Z
2022-09-26T07:26:05Z,42.805,6.029,13.3087,4.60114,2470.661,2022-9-26T09:27:58Z
2022-09-26T07:29:08Z,42.805,6.029,13.3080,4.60119,2470.661,2022-9-26T09:31:01Z
2022-09-26T07:32:11Z,42.805,6.029,13.3072,4.60107,2470.624,2022-9-26T09:34:05Z
2022-09-26T07:35:14Z,42.805,6.029,13.3069,4.60125,2470.661,2022-9-26T09:37:08Z
2022-09-26T07:38:17Z,42.805,6.029,13.3038,4.60109,2470.637,2022-9-26T09:40:11Z
2022-09-26T07:41:20Z,42.805,6.029,13.3053,4.60104,2470.637,2022-9-26T09:43:14Z
2022-09-26T07:44:24Z,42.805,6.029,13.3060,4.60084,2470.637,2022-9-26T09:46:17Z
2022-09-26T07:47:27Z,42.805,6.029,13.3054,4.60106,2470.614,2022-9-26T09:49:20Z
2022-09-26T07:50:30Z,42.805,6.029,13.3056,4.60086,2470.661,2022-9-26T09:52:23Z
2022-09-26T07:53:33Z,42.805,6.029,13.3063,4.60070,2470.624,2022-9-26T09:55:26Z
2022-09-26T07:56:36Z,42.805,6.029,13.3073,4.60074,2470.637,2022-9-26T09:58:29Z
2022-09-26T07:59:39Z,42.805,6.029,13.3059,4.60087,2470.624,2022-9-26T10:01:33Z
2022-09-26T08:02:42Z,42.805,6.029,13.3059,4.60088,2470.6,2022-9-26T10:04:36Z
2022-09-26T08:05:45Z,42.805,6.029,13.3057,4.60101,2470.637,2022-9-26T10:07:39Z
2022-09-26T08:08:49Z,42.805,6.029,13.3073,4.60087,2470.637,2022-9-26T10:10:42Z
2022-09-26T08:11:52Z,42.805,6.029,13.3070,4.60092,2470.614,2022-9-26T10:13:45Z
2022-09-26T08:14:55Z,42.805,6.029,13.3073,4.60087,2470.614,2022-9-26T10:16:48Z
2022-09-26T08:17:58Z,42.805,6.029,13.3053,4.60099,2470.637,2022-9-26T10:19:51Z
2022-09-26T08:21:01Z,42.805,6.029,13.3052,4.60116,2470.624,2022-9-26T10:22:54Z
2022-09-26T08:24:04Z,42.805,6.029,13.3040,4.60123,2470.614,2022-9-26T10:25:58Z
2022-09-26T08:27:07Z,42.805,6.029,13.3050,4.60110,2470.614,2022-9-26T10:29:01Z
2022-09-26T08:30:10Z,42.805,6.029,13.3048,4.60117,2470.624,2022-9-26T10:32:04Z
2022-09-26T08:33:14Z,42.805,6.029,13.3046,4.60081,2470.624,2022-9-26T10:35:07Z
2022-09-26T08:36:17Z,42.805,6.029,13.3052,4.60099,2470.624,2022-9-26T10:38:10Z
2022-09-26T08:39:20Z,42.805,6.029,13.3072,4.60121,2470.637,2022-9-26T10:41:13Z
2022-09-26T08:42:23Z,42.805,6.029,13.3048,4.60097,2470.624,2022-9-26T10:44:16Z
2022-09-26T08:45:26Z,42.805,6.029,13.3035,4.60109,2470.6,2022-9-26T10:47:19Z
2022-09-26T08:48:29Z,42.805,6.029,13.3048,4.60072,2470.637,2022-9-26T10:50:23Z
2022-09-26T08:51:32Z,42.805,6.029,13.3053,4.60074,2470.6,2022-9-26T10:53:26Z
2022-09-26T08:54:35Z,42.805,6.029,13.3048,4.60111,2470.6,2022-9-26T10:56:29Z
2022-09-26T08:57:39Z,42.805,6.029,13.3067,4.60120,2470.624,2022-9-26T10:59:32Z
2022-09-26T09:00:42Z,42.805,6.029,13.3067,4.60096,2470.614,2022-9-26T11:02:35Z
2022-09-26T09:03:45Z,42.805,6.029,13.3060,4.60096,2470.614,2022-9-26T11:05:38Z
2022-09-26T09:06:48Z,42.805,6.029,13.3054,4.60119,2470.577,2022-9-26T11:08:41Z
2022-09-26T09:09:51Z,42.805,6.029,13.3058,4.60109,2470.637,2022-9-26T11:11:45Z
2022-09-26T09:12:54Z,42.805,6.029,13.3065,4.60110,2470.591,2022-9-26T11:14:48Z
2022-09-26T09:15:57Z,42.805,6.029,13.3054,4.60095,2470.6,2022-9-26T11:17:51Z
2022-09-26T09:19:01Z,42.805,6.029,13.3052,4.60102,2470.614,2022-9-26T11:20:54Z
2022-09-26T09:22:04Z,42.805,6.029,13.3054,4.60125,2470.614,2022-9-26T11:23:57Z
2022-09-26T09:25:07Z,42.805,6.029,13.3055,4.60097,2470.577,2022-9-26T11:27:00Z
2022-09-26T09:28:10Z,42.805,6.029,13.3073,4.60079,2470.591,2022-9-26T11:30:03Z
2022-09-26T09:31:13Z,42.805,6.029,13.3062,4.60080,2470.614,2022-9-26T11:33:06Z
2022-09-26T09:34:16Z,42.805,6.029,13.3046,4.60105,2470.577,2022-9-26T11:36:10Z
2022-09-26T09:37:19Z,42.805,6.029,13.3046,4.60119,2470.614,2022-9-26T11:39:13Z
2022-09-26T09:40:22Z,42.805,6.029,13.3054,4.60104,2470.577,2022-9-26T11:42:16Z
2022-09-26T09:43:26Z,42.805,6.029,13.3069,4.60069,2470.577,2022-9-26T11:45:19Z
2022-09-26T09:46:29Z,42.805,6.029,13.3049,4.60084,2470.553,2022-9-26T11:48:22Z
2022-09-26T09:49:32Z,42.805,6.029,13.3055,4.60087,2470.567,2022-9-26T11:51:25Z
2022-09-26T09:52:35Z,42.805,6.029,13.3056,4.60079,2470.553,2022-9-26T11:54:28Z
2022-09-26T09:55:38Z,42.805,6.029,13.3058,4.60092,2470.577,2022-9-26T11:57:31Z
2022-09-26T09:58:41Z,42.805,6.029,13.3061,4.60089,2470.553,2022-9-26T12:00:35Z
2022-09-26T10:01:44Z,42.805,6.029,13.3056,4.60081,2470.567,2022-9-26T12:03:38Z
2022-09-26T10:04:47Z,42.805,6.029,13.3054,4.60079,2470.567,2022-9-26T12:06:41Z
2022-09-26T10:07:51Z,42.805,6.029,13.3045,4.60091,2470.567,2022-9-26T12:09:44Z
2022-09-26T10:10:54Z,42.805,6.029,13.3042,4.60102,2470.553,2022-9-26T12:12:47Z
2022-09-26T10:13:57Z,42.805,6.029,13.3036,4.60092,2470.553,2022-9-26T12:15:50Z
2022-09-26T10:17:00Z,42.805,6.029,13.3034,4.60087,2470.591,2022-9-26T12:18:53Z
2022-09-26T10:20:03Z,42.805,6.029,13.3046,4.60086,2470.53,2022-9-26T12:21:56Z
2022-09-26T10:23:06Z,42.805,6.029,13.3041,4.60131,2470.544,2022-9-26T12:25:00Z
2022-09-26T10:26:09Z,42.805,6.029,13.3035,4.60111,2470.567,2022-9-26T12:28:03Z
2022-09-26T10:29:12Z,42.805,6.029,13.3049,4.60081,2470.53,2022-9-26T12:31:06Z
2022-09-26T10:32:16Z,42.805,6.029,13.3036,4.60099,2470.553,2022-9-26T12:34:09Z
2022-09-26T10:35:19Z,42.805,6.029,13.3038,4.60097,2470.567,2022-9-26T12:37:12Z
2022-09-26T10:38:22Z,42.805,6.029,13.3041,4.60101,2470.553,2022-9-26T12:40:15Z
2022-09-26T10:41:25Z,42.805,6.029,13.3041,4.60097,2470.53,2022-9-26T12:43:18Z
2022-09-26T10:44:28Z,42.805,6.029,13.3051,4.60076,2470.507,2022-9-26T12:46:21Z
2022-09-26T10:47:31Z,42.805,6.029,13.3041,4.60085,2470.52,2022-9-26T12:49:25Z
2022-09-26T10:50:34Z,42.805,6.029,13.3036,4.60095,2470.567,2022-9-26T12:52:28Z
2022-09-26T10:53:37Z,42.805,6.029,13.3032,4.60096,2470.544,2022-9-26T12:55:31Z
2022-09-26T10:56:41Z,42.805,6.029,13.3031,4.60081,2470.53,2022-9-26T12:58:34Z
2022-09-26T10:59:44Z,42.805,6.029,13.3037,4.60064,2470.553,2022-9-26T13:01:37Z
2022-09-26T11:02:47Z,42.805,6.029,13.3039,4.60071,2470.507,2022-9-26T13:04:40Z
2022-09-26T11:05:50Z,42.805,6.029,13.3036,4.60084,2470.553,2022-9-26T13:07:43Z
2022-09-26T11:08:53Z,42.805,6.029,13.3029,4.60104,2470.544,2022-9-26T13:10:46Z
2022-09-26T11:11:56Z,42.805,6.029,13.3028,4.60119,2470.544,2022-9-26T13:13:50Z
2022-09-26T11:14:59Z,42.805,6.029,13.3037,4.60107,2470.52,2022-9-26T13:16:53Z
2022-09-26T11:18:02Z,42.805,6.029,13.3041,4.60099,2470.544,2022-9-26T13:19:56Z
2022-09-26T11:21:06Z,42.805,6.029,13.3038,4.60091,2470.53,2022-9-26T13:22:59Z
2022-09-26T11:24:09Z,42.805,6.029,13.3064,4.60102,2470.507,2022-9-26T13:26:02Z
2022-09-26T11:27:12Z,42.805,6.029,13.3081,4.60100,2470.558,2022-9-26T13:29:05Z
2022-09-26T11:30:15Z,42.805,6.029,13.3084,4.60086,2470.483,2022-9-26T13:32:08Z
2022-09-26T11:33:18Z,42.805,6.029,13.3071,4.60081,2470.497,2022-9-26T13:35:11Z
2022-09-26T11:36:21Z,42.805,6.029,13.3066,4.60079,2470.497,2022-9-26T13:38:15Z
2022-09-26T11:39:24Z,42.805,6.029,13.3073,4.60089,2470.474,2022-9-26T13:41:18Z
2022-09-26T11:42:27Z,42.805,6.029,13.3073,4.60079,2470.52,2022-9-26T13:44:21Z
2022-09-26T11:45:31Z,42.805,6.029,13.3052,4.60083,2470.497,2022-9-26T13:47:24Z
2022-09-26T11:48:34Z,42.805,6.029,13.3042,4.60102,2470.483,2022-9-26T13:50:27Z
2022-09-26T11:51:37Z,42.805,6.029,13.3096,4.60104,2470.52,2022-9-26T13:53:30Z
2022-09-26T11:54:40Z,42.805,6.029,13.3036,4.60110,2470.52,2022-9-26T13:56:33Z
2022-09-26T11:57:43Z,42.805,6.029,13.3039,4.60092,2470.483,2022-9-26T13:59:37Z
2022-09-26T12:00:46Z,42.805,6.029,13.3051,4.60081,2470.497,2022-9-26T14:02:40Z
2022-09-26T12:03:49Z,42.805,6.029,13.3089,4.60081,2470.497,2022-9-26T14:05:43Z
2022-09-26T12:06:52Z,42.805,6.029,13.3039,4.60085,2470.474,2022-9-26T14:08:46Z
2022-09-26T12:09:56Z,42.805,6.029,13.3046,4.60083,2470.52,2022-9-26T14:11:49Z
2022-09-26T12:12:59Z,42.805,6.029,13.3054,4.60074,2470.52,2022-9-26T14:14:52Z
2022-09-26T12:16:02Z,42.805,6.029,13.3045,4.60134,2470.497,2022-9-26T14:17:55Z
2022-09-26T12:19:05Z,42.805,6.029,13.3048,4.60097,2470.483,2022-9-26T14:20:58Z
2022-09-26T12:22:08Z,42.805,6.029,13.3046,4.60073,2470.483,2022-9-26T14:24:02Z
2022-09-26T12:25:11Z,42.805,6.029,13.3032,4.60093,2470.483,2022-9-26T14:27:05Z
2022-09-26T12:28:14Z,42.805,6.029,13.3032,4.60119,2470.497,2022-9-26T14:30:08Z
2022-09-26T12:31:18Z,42.805,6.029,13.3035,4.60077,2470.474,2022-9-26T14:33:11Z
2022-09-26T12:34:21Z,42.805,6.029,13.3043,4.60084,2470.483,2022-9-26T14:36:14Z
2022-09-26T12:37:24Z,42.805,6.029,13.3043,4.60119,2470.46,2022-9-26T14:39:17Z
2022-09-26T12:40:27Z,42.805,6.029,13.3025,4.60114,2470.507,2022-9-26T14:42:20Z
2022-09-26T12:43:30Z,42.805,6.029,13.3031,4.60092,2470.46,2022-9-26T14:45:23Z
2022-09-26T12:46:33Z,42.805,6.029,13.3032,4.60082,2470.507,2022-9-26T14:48:27Z
2022-09-26T12:49:36Z,42.805,6.029,13.3061,4.60094,2470.507,2022-9-26T14:51:30Z
2022-09-26T12:52:39Z,42.805,6.029,13.3048,4.60102,2470.45,2022-9-26T14:54:33Z
2022-09-26T12:55:43Z,42.805,6.029,13.3074,4.60084,2470.437,2022-9-26T14:57:36Z
2022-09-26T12:58:46Z,42.805,6.029,13.3041,4.60100,2470.497,2022-9-26T15:00:39Z
2022-09-26T13:01:49Z,42.805,6.029,13.3065,4.60092,2470.474,2022-9-26T15:03:42Z
2022-09-26T13:04:52Z,42.805,6.029,13.3058,4.60098,2470.497,2022-9-26T15:06:45Z
2022-09-26T13:07:55Z,42.805,6.029,13.3085,4.60087,2470.45,2022-9-26T15:09:48Z
2022-09-26T13:10:58Z,42.805,6.029,13.3088,4.60076,2470.413,2022-9-26T15:12:52Z
2022-09-26T13:14:01Z,42.805,6.029,13.3058,4.60095,2470.46,2022-9-26T15:15:55Z
2022-09-26T13:17:04Z,42.805,6.029,13.3068,4.60105,2470.437,2022-9-26T15:18:58Z
2022-09-26T13:20:08Z,42.805,6.029,13.3068,4.60087,2470.474,2022-9-26T15:22:01Z
2022-09-26T13:23:11Z,42.805,6.029,13.3071,4.60094,2470.474,2022-9-26T15:25:04Z
2022-09-26T13:26:14Z,42.805,6.029,13.3069,4.60101,2470.413,2022-9-26T15:28:07Z
2022-09-26T13:29:17Z,42.805,6.029,13.3080,4.60121,2470.437,2022-9-26T15:31:10Z
2022-09-26T13:32:20Z,42.805,6.029,13.3079,4.60104,2470.437,2022-9-26T15:34:13Z
2022-09-26T13:35:23Z,42.805,6.029,13.3085,4.60099,2470.474,2022-9-26T15:37:17Z
2022-09-26T13:38:26Z,42.805,6.029,13.3094,4.60097,2470.474,2022-9-26T15:40:20Z
2022-09-26T13:41:29Z,42.805,6.029,13.3076,4.60087,2470.45,2022-9-26T15:43:23Z
2022-09-26T13:44:33Z,42.805,6.029,13.3061,4.60138,2470.45,2022-9-26T15:46:26Z
2022-09-26T13:47:36Z,42.805,6.029,13.3070,4.60097,2470.437,2022-9-26T15:49:29Z
2022-09-26T13:50:39Z,42.805,6.029,13.3079,4.60089,2470.46,2022-9-26T15:52:32Z
2022-09-26T13:53:42Z,42.805,6.029,13.3103,4.60099,2470.46,2022-9-26T15:55:35Z
2022-09-26T13:56:45Z,42.805,6.029,13.3077,4.60090,2470.45,2022-9-26T15:58:38Z
2022-09-26T13:59:48Z,42.805,6.029,13.3086,4.60095,2470.497,2022-9-26T16:01:42Z
2022-09-26T14:02:51Z,42.805,6.029,13.3092,4.60085,2470.45,2022-9-26T16:04:45Z
2022-09-26T14:05:54Z,42.805,6.029,13.3090,4.60084,2470.427,2022-9-26T16:07:48Z
2022-09-26T14:08:58Z,42.805,6.029,13.3082,4.60091,2470.474,2022-9-26T16:10:51Z
2022-09-26T14:12:01Z,42.805,6.029,13.3095,4.60099,2470.437,2022-9-26T16:13:54Z
2022-09-26T14:15:04Z,42.805,6.029,13.3091,4.60095,2470.474,2022-9-26T16:16:57Z
2022-09-26T14:18:07Z,42.805,6.029,13.3074,4.60091,2470.46,2022-9-26T16:20:00Z
2022-09-26T14:21:10Z,42.805,6.029,13.3082,4.60087,2470.45,2022-9-26T16:23:03Z
2022-09-26T14:24:13Z,42.805,6.029,13.3077,4.60080,2470.474,2022-9-26T16:26:07Z
2022-09-26T14:27:16Z,42.805,6.029,13.3062,4.60099,2470.413,2022-9-26T16:29:10Z
2022-09-26T14:30:19Z,42.805,6.029,13.3069,4.60087,2470.437,2022-9-26T16:32:13Z
2022-09-26T14:33:23Z,42.805,6.029,13.3069,4.60123,2470.497,2022-9-26T16:35:16Z
2022-09-26T14:36:26Z,42.805,6.029,13.3075,4.60097,2470.437,2022-9-26T16:38:19Z
2022-09-26T14:39:29Z,42.805,6.029,13.3073,4.60104,2470.474,2022-9-26T16:41:22Z
2022-09-26T14:42:32Z,42.805,6.029,13.3070,4.60110,2470.46,2022-9-26T16:44:25Z
2022-09-26T14:45:35Z,42.805,6.029,13.3065,4.60114,2470.474,2022-9-26T16:47:28Z
2022-09-26T14:48:38Z,42.805,6.029,13.3082,4.60134,2470.464,2022-9-26T16:50:32Z
2022-09-26T14:51:41Z,42.805,6.029,13.3093,4.60097,2470.497,2022-9-26T16:53:35Z
2022-09-26T14:54:44Z,42.805,6.029,13.3101,4.60099,2470.474,2022-9-26T16:56:38Z
2022-09-26T14:57:48Z,42.805,6.029,13.3105,4.60104,2470.497,2022-9-26T16:59:41Z
2022-09-26T15:00:51Z,42.805,6.029,13.3110,4.60095,2470.474,2022-9-26T17:02:44Z
2022-09-26T15:03:54Z,42.805,6.029,13.3086,4.60109,2470.474,2022-9-26T17:05:47Z
2022-09-26T15:06:57Z,42.805,6.029,13.3089,4.60098,2470.474,2022-9-26T17:08:50Z
2022-09-26T15:10:00Z,42.805,6.029,13.3096,4.60091,2470.46,2022-9-26T17:11:53Z